When you browse on this site, cookies collect data to enhance your experience and personalize the content and advertising you see.
Visit our Privacy Policy to learn more. By continuing to use the site, you agree to this use of cookies and data.

Hourly Weather Sankt Polten

Today, 12 July, Sunday

Time Temperature Precipitation Wind Pressure Humidity
00:00 +13°C° 0 mm 1 mps 741 mmHg 97%
01:00 +12°C° 0 mm 1 mps 741 mmHg 96%
02:00 +12°C° 0 mm 1 mps 741 mmHg 96%
03:00 +12°C° 0 mm 1 mps 741 mmHg 96%
04:00 +12°C° 0 mm 1 mps 741 mmHg 96%
05:00 +13°C° 0 mm 1 mps 741 mmHg 93%
06:00 +14°C° 0 mm 1 mps 742 mmHg 89%
07:00 +15°C° 0 mm 1 mps 742 mmHg 86%
08:00 +18°C° 0 mm 1 mps 742 mmHg 74%
09:00 +20°C° 0 mm 1 mps 742 mmHg 62%
10:00 +21°C° 0 mm 1 mps 742 mmHg 50%
11:00 +21°C° 0 mm 2 mps 742 mmHg 49%
12:00 +21°C° 0 mm 2 mps 742 mmHg 47%
13:00 +23°C° 0 mm 2 mps 742 mmHg 46%
14:00 +23°C° 0 mm 2 mps 742 mmHg 47%
15:00 +23°C° 0 mm 2 mps 741 mmHg 49%
16:00 +23°C° 0 mm 2 mps 741 mmHg 50%
17:00 +21°C° 0 mm 1 mps 741 mmHg 58%
18:00 +20°C° 0 mm 1 mps 741 mmHg 66%
19:00 +19°C° 0 mm 1 mps 741 mmHg 75%
20:00 +16°C° 0 mm 1 mps 741 mmHg 78%
21:00 +15°C° 0 mm 1 mps 741 mmHg 81%
22:00 +13°C° 0 mm 1 mps 741 mmHg 84%
23:00 +13°C° 0 mm 1 mps 742 mmHg 85%

Tomorrow, 13 July, Monday

Time Temperature Precipitation Wind Pressure Humidity
00:00 +12°C° 0 mm 1 mps 742 mmHg 87%
01:00 +12°C° 0 mm 1 mps 742 mmHg 88%
02:00 +12°C° 0 mm 1 mps 741 mmHg 89%
03:00 +11°C° 0 mm 1 mps 741 mmHg 90%
04:00 +11°C° 0 mm 1 mps 741 mmHg 91%
05:00 +13°C° 0 mm 1 mps 741 mmHg 85%
06:00 +15°C° 0 mm 1 mps 741 mmHg 79%
07:00 +16°C° 0 mm 1 mps 741 mmHg 73%
08:00 +19°C° 0 mm 1 mps 741 mmHg 67%
09:00 +19°C° 0 mm 2 mps 741 mmHg 60%
10:00 +21°C° 0 mm 2 mps 741 mmHg 54%
11:00 +21°C° 0 mm 3 mps 740 mmHg 52%
12:00 +22°C° 0 mm 3 mps 740 mmHg 50%
13:00 +24°C° 0 mm 3 mps 740 mmHg 48%
14:00 +22°C° 0 mm 3 mps 739 mmHg 50%
15:00 +22°C° 0 mm 3 mps 739 mmHg 52%
16:00 +22°C° 0 mm 3 mps 738 mmHg 53%
17:00 +20°C° 0 mm 3 mps 738 mmHg 61%
18:00 +19°C° 0 mm 2 mps 738 mmHg 68%
19:00 +18°C° 0 mm 2 mps 738 mmHg 75%
20:00 +16°C° 0 mm 2 mps 738 mmHg 78%
21:00 +15°C° 0 mm 2 mps 738 mmHg 80%
22:00 +14°C° 0 mm 1 mps 738 mmHg 83%
23:00 +13°C° 0 mm 1 mps 738 mmHg 84%

Day after tomorrow, 14 July, Tuesday

Time Temperature Precipitation Wind Pressure Humidity
00:00 +13°C° 0 mm 1 mps 738 mmHg 86%
01:00 +12°C° 0 mm 1 mps 738 mmHg 88%
02:00 +12°C° 0 mm 1 mps 738 mmHg 89%
03:00 +12°C° 0 mm 1 mps 737 mmHg 90%
04:00 +11°C° 0 mm 1 mps 737 mmHg 92%
05:00 +13°C° 0 mm 1 mps 737 mmHg 86%
06:00 +15°C° 0 mm 1 mps 737 mmHg 79%
07:00 +18°C° 0 mm 1 mps 738 mmHg 73%
08:00 +19°C° 0 mm 1 mps 737 mmHg 68%
09:00 +20°C° 0 mm 2 mps 737 mmHg 63%
10:00 +23°C° 0 mm 2 mps 737 mmHg 57%
11:00 +23°C° 0 mm 2 mps 737 mmHg 56%
12:00 +24°C° 0 mm 2 mps 736 mmHg 54%
13:00 +25°C° 0 mm 3 mps 736 mmHg 52%
14:00 +25°C° 0.1 mm 3 mps 736 mmHg 54%
15:00 +25°C° 0.1 mm 3 mps 735 mmHg 56%
16:00 +25°C° 0.1 mm 3 mps 735 mmHg 58%
17:00 +23°C° 0.1 mm 2 mps 735 mmHg 65%
18:00 +21°C° 0.1 mm 2 mps 735 mmHg 72%
19:00 +21°C° 0.1 mm 1 mps 735 mmHg 79%
20:00 +19°C° 0 mm 1 mps 735 mmHg 81%
21:00 +18°C° 0 mm 1 mps 735 mmHg 83%
22:00 +16°C° 0 mm 1 mps 735 mmHg 85%
23:00 +15°C° 0 mm 1 mps 735 mmHg 86%

15 July, Wednesday

Time Temperature Precipitation Wind Pressure Humidity
00:00 +15°C° 0 mm 1 mps 735 mmHg 86%
01:00 +15°C° 0 mm 1 mps 735 mmHg 87%
02:00 +14°C° 0 mm 1 mps 735 mmHg 87%
03:00 +14°C° 0 mm 1 mps 735 mmHg 87%
04:00 +14°C° 0 mm 1 mps 734 mmHg 88%
05:00 +16°C° 0 mm 1 mps 735 mmHg 84%
06:00 +18°C° 0 mm 1 mps 735 mmHg 80%
07:00 +20°C° 0 mm 1 mps 735 mmHg 76%
08:00 +22°C° 0.1 mm 1 mps 735 mmHg 69%
09:00 +23°C° 0.1 mm 1 mps 735 mmHg 62%
10:00 +25°C° 0.1 mm 2 mps 735 mmHg 54%
11:00 +25°C° 0.1 mm 2 mps 734 mmHg 53%
12:00 +26°C° 0.1 mm 2 mps 734 mmHg 53%
13:00 +26°C° 0.1 mm 2 mps 734 mmHg 52%
14:00 +26°C° 0.3 mm 2 mps 734 mmHg 54%
15:00 +26°C° 0.3 mm 2 mps 734 mmHg 56%
16:00 +26°C° 0.3 mm 2 mps 733 mmHg 59%
17:00 +24°C° 0.6 mm 2 mps 734 mmHg 68%
18:00 +21°C° 0.6 mm 2 mps 734 mmHg 78%
19:00 +18°C° 0.6 mm 2 mps 734 mmHg 88%
20:00 +18°C° 0.2 mm 2 mps 734 mmHg 90%
21:00 +17°C° 0.2 mm 2 mps 734 mmHg 92%
22:00 +17°C° 0.2 mm 3 mps 735 mmHg 95%
23:00 +17°C° 0.1 mm 3 mps 735 mmHg 94%

16 July, Thursday

Time Temperature Precipitation Wind Pressure Humidity
00:00 +17°C° 0.1 mm 3 mps 735 mmHg 94%
01:00 +17°C° 0.1 mm 3 mps 735 mmHg 94%
02:00 +16°C° 0.1 mm 3 mps 735 mmHg 94%
03:00 +16°C° 0.1 mm 3 mps 735 mmHg 94%
04:00 +16°C° 0.1 mm 2 mps 735 mmHg 95%
05:00 +16°C° 0.2 mm 2 mps 735 mmHg 95%
06:00 +16°C° 0.2 mm 2 mps 735 mmHg 95%
07:00 +16°C° 0.2 mm 2 mps 735 mmHg 95%
08:00 +16°C° 0.4 mm 2 mps 735 mmHg 95%
09:00 +16°C° 0.4 mm 2 mps 735 mmHg 96%
10:00 +16°C° 0.4 mm 2 mps 735 mmHg 96%
11:00 +16°C° 0.5 mm 2 mps 735 mmHg 96%
12:00 +16°C° 0.5 mm 2 mps 735 mmHg 96%
13:00 +16°C° 0.5 mm 2 mps 735 mmHg 96%
14:00 +16°C° 0.7 mm 3 mps 735 mmHg 96%
15:00 +16°C° 0.7 mm 3 mps 735 mmHg 96%
16:00 +15°C° 0.7 mm 4 mps 735 mmHg 97%
17:00 +15°C° 0.1 mm 4 mps 735 mmHg 96%
18:00 +15°C° 0.1 mm 4 mps 735 mmHg 95%
19:00 +15°C° 0.1 mm 4 mps 735 mmHg 94%
20:00 +14°C° 0 mm 4 mps 735 mmHg 94%
21:00 +14°C° 0 mm 4 mps 736 mmHg 94%
22:00 +14°C° 0 mm 3 mps 736 mmHg 94%
23:00 +14°C° 0.1 mm 3 mps 736 mmHg 95%

17 July, Friday

Time Temperature Precipitation Wind Pressure Humidity
00:00 +14°C° 0.1 mm 3 mps 736 mmHg 95%
01:00 +14°C° 0.1 mm 3 mps 736 mmHg 96%
02:00 +14°C° 0 mm 3 mps 735 mmHg 96%
03:00 +14°C° 0 mm 3 mps 735 mmHg 96%
04:00 +14°C° 0 mm 4 mps 735 mmHg 95%
05:00 +14°C° 0 mm 4 mps 735 mmHg 93%
06:00 +16°C° 0 mm 3 mps 736 mmHg 91%
07:00 +16°C° 0 mm 3 mps 736 mmHg 89%
08:00 +17°C° 0.1 mm 4 mps 736 mmHg 83%
09:00 +18°C° 0.1 mm 4 mps 736 mmHg 77%
10:00 +20°C° 0.1 mm 4 mps 736 mmHg 72%
11:00 +20°C° 0.3 mm 4 mps 736 mmHg 69%
12:00 +21°C° 0.3 mm 4 mps 736 mmHg 67%
13:00 +22°C° 0.3 mm 4 mps 736 mmHg 64%
14:00 +22°C° 0.5 mm 4 mps 736 mmHg 67%
15:00 +22°C° 0.5 mm 3 mps 735 mmHg 69%
16:00 +22°C° 0.5 mm 3 mps 735 mmHg 72%
17:00 +21°C° 0.5 mm 3 mps 735 mmHg 77%
18:00 +19°C° 0.5 mm 2 mps 736 mmHg 83%
19:00 +18°C° 0.5 mm 2 mps 736 mmHg 88%
20:00 +17°C° 0.1 mm 2 mps 736 mmHg 90%
21:00 +16°C° 0.1 mm 1 mps 737 mmHg 91%
22:00 +16°C° 0.1 mm 1 mps 737 mmHg 92%
23:00 +15°C° 0.1 mm 1 mps 737 mmHg 93%
Show more